Location: Dehesa de la Cepeda
(40.6574°N, 4.3013°W)
Time: 19:46:44
(UTC+00:00)

Cosmos 1818 - Pass Details

Date: 05 July 2020
Orbit: 777 x 796 km, 65.0° (Epoch: 05 August)

Event Time Altitude Azimuth Distance (km) Brightness Sun altitude
Rises 20:43:54 0° 206° (SSW) 3,261 6.6 -8.9°
Reaches altitude 10° 20:46:18 10° 204° (SSW) 2,339 5.8 -9.3°
Maximum altitude 20:51:41 76° 119° (ESE) 815 3.5 -10.0°
Drops below altitude 10° 20:57:07 10° 35° (NE) 2,366 6.1 -10.8°
Sets 20:59:33 0° 34° (NE) 3,301 6.9 -11.1°
